DW5905 Weather Reports


Display with metric or nautical units.
time (UTC)temp
F
wind
direction
speed
MPH
gust
MPH
rain 1hr
in
rain 24hr
in
rain mn
in
humidity
%
barometer
mb
20260508064517 61 286 7.0 23.0 0.09 0.34 0.34 86 1002.9
20260508063023 63 269 8.0 28.0 0.13 0.33 0.33 88 1004.3
20260508061541 63 286 9.0 23.0 0.18 0.31 0.31 88 1003.0
20260508060053 66 286 8.0 24.0 0.24 0.28 0.28 85 1003.1
20260508054523 67 300 1.0 6.0 0.18 0.24 0.24 89 1002.8
20260508053112 68 336 5.0 13.0 0.14 0.20 0.20 87 1002.8
20260508051509 69 332 2.0 7.0 0.04 0.09 0.12 85 1002.2
20260508050040 69 333 2.0 6.0 0.00 0.06 0.06 82 1001.4
20260508044501 69 9 0.0 3.0 0.02 0.06 0.06 85 1001.4
20260508043037 69 17 0.0 5.0 0.02 0.06 0.06 84 1001.4
20260508041612 68 345 1.0 5.0 0.02 0.06 0.06 84 1001.4
20260508040005 68 340 0.0 8.0 0.06 0.06 0.06 83 1001.7
20260508034510 69 302 2.0 12.0 0.04 0.04 0.04 80 1002.0
20260508033030 69 332 3.0 9.0 0.04 0.04 0.04 80 1002.0
20260508031601 70 303 3.0 16.0 0.04 0.04 0.04 79 1002.2
20260508030022 75 289 7.0 16.0 0.00 0.00 0.00 63 1002.5
20260508024549 78 235 11.0 26.0 0.00 0.00 0.00 59 1002.4
20260508023001 83 290 5.0 13.0 0.00 0.00 0.00 50 1000.4
20260508021537 84 360 5.0 16.0 0.00 0.00 0.00 49 999.7
20260508020054 84 17 6.0 15.0 0.00 0.00 0.00 48 999.5
20260508014601 84 13 8.0 20.0 0.00 0.00 0.00 48 999.6
20260508013021 84 5 9.0 18.0 0.00 0.00 0.00 48 1000.0
20260508011543 81 348 1.0 8.0 0.00 0.00 0.00 53 999.9
20260508010050 80 102 1.0 7.0 0.00 0.00 0.00 54 999.9
20260508004515 80 69 3.0 6.0 0.00 0.00 0.00 55 1000.0
20260508003043 80 44 1.0 4.0 0.00 0.00 0.00 55 1000.0
20260508001520 81 360 2.0 8.0 0.00 0.00 0.00 54 1000.0
20260508000032 81 34 2.0 10.0 0.00 0.00 0.00 54 999.9
20260507234600 79 65 0.0 4.0 0.00 0.00 0.00 59 999.9
20260507233022 79 66 0.0 3.0 0.00 0.00 0.00 60 1000.2
20260507231540 77 66 0.0 3.0 0.00 0.00 0.00 63 1000.3
20260507230059 78 92 0.0 4.0 0.00 0.00 0.00 62 1000.3
20260507224504 77 64 0.0 2.0 0.00 0.00 0.00 64 1000.3
20260507223008 78 84 0.0 0.0 0.00 0.00 0.00 62 1000.3
20260507221509 79 80 0.0 2.0 0.00 0.00 0.00 60 1000.5
20260507220040 81 69 0.0 2.0 0.00 0.00 0.00 56 1000.5
20260507214505 82 20 0.0 1.0 0.00 0.00 0.00 53 1000.6
20260507213034 84 331 1.0 4.0 0.00 0.00 0.00 50 1000.8
20260507211549 84 349 2.0 6.0 0.00 0.00 0.00 50 1000.7
20260507210006 85 349 2.0 8.0 0.00 0.00 0.00 49 1000.8
20260507204533 85 334 2.0 9.0 0.00 0.00 0.00 48 1000.8
20260507203054 85 345 2.0 6.0 0.00 0.00 0.00 48 1000.7
20260507201529 85 22 1.0 6.0 0.00 0.00 0.00 49 1000.4
20260507200049 85 350 1.0 5.0 0.00 0.00 0.00 49 1000.6
20260507194621 86 341 2.0 6.0 0.00 0.00 0.00 47 1000.6
20260507193029 86 340 3.0 9.0 0.00 0.00 0.00 47 1000.9
20260507191600 86 355 3.0 12.0 0.00 0.00 0.00 47 1001.0
20260507190010 86 348 2.0 8.0 0.00 0.00 0.00 47 1000.7
20260507184533 86 327 2.0 11.0 0.00 0.00 0.00 47 1000.8
20260507183047 87 319 3.0 10.0 0.00 0.00 0.00 47 1000.8
20260507181501 87 311 2.0 10.0 0.00 0.00 0.00 46 1000.6
20260507180036 88 313 4.0 8.0 0.00 0.00 0.00 48 1000.5
20260507174516 88 288 3.0 13.0 0.00 0.00 0.00 46 1000.6
20260507173035 88 305 9.0 19.0 0.00 0.00 0.00 45 1000.6
20260507171604 89 32 4.0 17.0 0.00 0.00 0.00 44 1000.6
20260507170009 88 360 8.0 20.0 0.00 0.00 0.00 44 1000.8
20260507164548 88 322 10.0 23.0 0.00 0.00 0.00 45 1001.1
20260507163059 88 344 7.0 15.0 0.00 0.00 0.00 45 1001.4
20260507161531 89 290 7.0 22.0 0.00 0.00 0.00 46 1001.9
20260507160033 89 349 11.0 22.0 0.00 0.00 0.00 46 1002.1
20260507154550 88 351 6.0 17.0 0.00 0.00 0.00 48 1002.3
20260507153002 88 302 8.0 17.0 0.00 0.00 0.00 48 1002.8
20260507151534 87 308 7.0 18.0 0.00 0.00 0.00 51 1003.1
20260507150059 87 23 7.0 17.0 0.00 0.00 0.00 50 1003.7
20260507144517 87 360 9.0 18.0 0.00 0.00 0.00 49 1003.9
20260507143025 87 320 9.0 17.0 0.00 0.00 0.00 50 1004.2
20260507141607 87 321 7.0 17.0 0.00 0.00 0.00 51 1004.8
20260507140055 85 0.0 0.0 0.00 0.00 0.00 54 1005.3
20260507134517 85 2.0 9.0 0.00 0.00 0.00 58 1005.7
20260507133036 82 0.0 0.0 0.00 0.00 0.00 62 1006.3
20260507131559 82 0.0 0.0 0.00 0.00 0.00 63 1006.6
20260507130030 82 0.0 0.0 0.00 0.00 0.00 63 1006.8
20260507124551 81 0.0 0.0 0.00 0.00 0.00 66 1006.9
20260507123007 80 0.0 0.0 0.00 0.00 0.00 68 1007.0
20260507121541 78 0.0 0.0 0.00 0.00 0.00 77 1006.8
20260507120044 76 0.0 0.0 0.00 0.00 0.00 81 1007.0
20260507114544 76 144 0.0 1.0 0.00 0.00 0.00 77 1007.2
20260507113048 75 144 0.0 2.0 0.00 0.00 0.00 79 1006.9
20260507111503 74 144 0.0 2.0 0.00 0.00 0.00 80 1006.9
20260507110037 72 144 0.0 2.0 0.00 0.00 0.00 83 1006.7
20260507104559 71 144 0.0 2.0 0.00 0.00 0.00 83 1006.7
20260507103009 71 144 1.0 2.0 0.00 0.00 0.00 83 1006.9
20260507101548 70 103 1.0 2.0 0.00 0.00 0.00 83 1006.7
20260507100109 71 103 0.0 2.0 0.00 0.00 0.00 82 1006.8
20260507094526 71 102 1.0 2.0 0.00 0.00 0.00 81 1006.9
20260507093050 70 91 0.0 1.0 0.00 0.00 0.00 82 1006.7
20260507091527 71 91 1.0 1.0 0.00 0.00 0.00 81 1006.7
20260507090055 71 91 0.0 2.0 0.00 0.00 0.00 82 1006.7
20260507084512 70 90 0.0 2.0 0.00 0.00 0.00 82 1006.7
20260507083022 70 90 0.0 2.0 0.00 0.00 0.00 83 1006.7
20260507081544 71 90 0.0 2.0 0.00 0.00 0.00 83 1006.9
20260507080054 71 90 0.0 2.0 0.00 0.00 0.00 83 1007.0
20260507074526 71 90 0.0 2.0 0.00 0.00 0.00 82 1007.2
20260507073046 71 90 0.0 2.0 0.00 0.00 0.00 81 1007.3
20260507071550 71 90 0.0 1.0 0.00 0.00 0.00 81 1007.5
20260507070013 72 90 0.0 0.0 0.00 0.00 0.00 80 1007.5